Time,TemperatureF,DewpointF,PressureIn,WindDirection,WindDirectionDegrees,WindSpeedMPH,WindSpeedGustMPH,Humidity,HourlyPrecipIn,Conditions,Clouds,dailyrainin,SoftwareType,DateUTC
2013-09-06 00:01:00,50.6,49.0,30.14,NE,54,0.0,0.0,95,0.00,,,0.02,weatherlink.com 1.10,2013-09-06 04:01:00,
2013-09-06 00:16:00,50.2,49.0,30.14,NE,54,0.0,0.0,96,0.00,,,0.02,weatherlink.com 1.10,2013-09-06 04:16:00,
2013-09-06 00:31:00,50.0,49.0,30.14,NE,54,0.0,0.0,96,0.00,,,0.02,weatherlink.com 1.10,2013-09-06 04:31:00,
2013-09-06 00:46:00,49.7,49.0,30.14,NE,54,0.0,0.0,96,0.00,,,0.02,weatherlink.com 1.10,2013-09-06 04:46:00,
2013-09-06 01:01:00,49.3,48.0,30.14,NE,54,0.0,0.0,96,0.01,,,0.03,weatherlink.com 1.10,2013-09-06 05:01:00,
2013-09-06 01:16:00,49.0,48.0,30.14,NE,54,0.0,0.0,96,0.01,,,0.03,weatherlink.com 1.10,2013-09-06 05:16:00,
2013-09-06 01:31:00,48.6,48.0,30.15,NE,54,0.0,0.0,96,0.01,,,0.03,weatherlink.com 1.10,2013-09-06 05:31:00,
2013-09-06 01:46:00,48.2,47.0,30.15,NE,54,0.0,0.0,96,0.01,,,0.03,weatherlink.com 1.10,2013-09-06 05:46:00,
2013-09-06 02:01:00,48.0,47.0,30.15,NE,54,0.0,0.0,96,0.00,,,0.03,weatherlink.com 1.10,2013-09-06 06:01:00,
2013-09-06 02:16:00,48.4,48.0,30.16,NE,54,0.0,0.0,97,0.00,,,0.03,weatherlink.com 1.10,2013-09-06 06:16:00,
2013-09-06 02:31:00,48.8,48.0,30.16,NE,54,0.0,1.0,97,0.00,,,0.03,weatherlink.com 1.10,2013-09-06 06:31:00,
2013-09-06 02:46:00,49.2,48.0,30.16,NE,54,0.0,1.0,97,0.00,,,0.03,weatherlink.com 1.10,2013-09-06 06:46:00,
2013-09-06 03:01:00,49.0,48.0,30.16,NE,54,1.0,1.0,97,0.00,,,0.03,weatherlink.com 1.10,2013-09-06 07:01:00,
2013-09-06 03:16:00,49.4,49.0,30.16,NE,54,0.0,1.0,97,0.00,,,0.03,weatherlink.com 1.10,2013-09-06 07:16:00,
2013-09-06 03:31:00,50.5,50.0,30.16,North,3,0.0,1.0,97,0.00,,,0.03,weatherlink.com 1.10,2013-09-06 07:31:00,
2013-09-06 03:46:00,51.7,51.0,30.17,NNW,337,1.0,3.0,97,0.00,,,0.00,weatherlink.com 1.10,2013-09-06 07:46:00,
2013-09-06 04:01:00,51.8,51.0,30.17,NNW,340,0.0,3.0,97,0.00,,,0.00,weatherlink.com 1.10,2013-09-06 08:01:00,
2013-09-06 04:16:00,52.5,52.0,30.17,North,360,0.0,2.0,97,0.00,,,0.00,weatherlink.com 1.10,2013-09-06 08:16:00,
2013-09-06 04:31:00,52.3,52.0,30.17,NW,322,0.0,5.0,97,0.00,,,0.00,weatherlink.com 1.10,2013-09-06 08:31:00,
2013-09-06 04:46:00,52.0,51.0,30.18,NW,322,0.0,2.0,96,0.00,,,0.00,weatherlink.com 1.10,2013-09-06 08:46:00,
2013-09-06 05:01:00,52.4,51.0,30.18,West,275,0.0,3.0,96,0.00,,,0.00,weatherlink.com 1.10,2013-09-06 09:01:00,
2013-09-06 05:16:00,52.7,52.0,30.18,NW,322,0.0,2.0,96,0.00,,,0.00,weatherlink.com 1.10,2013-09-06 09:16:00,
2013-09-06 05:31:00,53.0,52.0,30.19,WNW,294,0.0,4.0,96,0.00,,,0.00,weatherlink.com 1.10,2013-09-06 09:31:00,
2013-09-06 05:46:00,53.8,52.0,30.20,NNW,343,0.0,3.0,95,0.00,,,0.00,weatherlink.com 1.10,2013-09-06 09:46:00,
2013-09-06 06:01:00,53.1,51.0,30.20,NW,323,0.0,2.0,93,0.00,,,0.00,weatherlink.com 1.10,2013-09-06 10:01:00,
2013-09-06 06:16:00,53.3,52.0,30.20,North,11,0.0,3.0,94,0.00,,,0.00,weatherlink.com 1.10,2013-09-06 10:16:00,
2013-09-06 06:31:00,53.9,52.0,30.21,North,350,0.0,3.0,93,0.00,,,0.00,weatherlink.com 1.10,2013-09-06 10:31:00,
2013-09-06 06:46:00,53.5,52.0,30.21,SSE,160,0.0,1.0,93,0.00,,,0.00,weatherlink.com 1.10,2013-09-06 10:46:00,
2013-09-06 07:01:00,53.7,52.0,30.21,ENE,58,0.0,3.0,93,0.00,,,0.00,weatherlink.com 1.10,2013-09-06 11:01:00,
2013-09-06 07:16:00,54.9,53.0,30.21,North,359,1.0,5.0,92,0.00,,,0.00,weatherlink.com 1.10,2013-09-06 11:16:00,
2013-09-06 07:32:00,55.9,53.0,30.22,NNW,332,4.0,4.0,89,0.00,,,0.00,weatherlink.com 1.10,2013-09-06 11:32:00,
2013-09-06 07:47:00,56.7,53.0,30.22,North,360,3.0,5.0,88,0.00,,,0.00,weatherlink.com 1.10,2013-09-06 11:47:00,
2013-09-06 08:02:00,57.9,54.0,30.23,North,7,5.0,7.0,86,0.00,,,0.00,weatherlink.com 1.10,2013-09-06 12:02:00,
2013-09-06 08:17:00,59.3,54.0,30.23,NNE,30,0.0,5.0,83,0.00,,,0.00,weatherlink.com 1.10,2013-09-06 12:17:00,
2013-09-06 08:32:00,60.7,55.0,30.23,NE,44,3.0,6.0,82,0.00,,,0.00,weatherlink.com 1.10,2013-09-06 12:32:00,
2013-09-06 08:47:00,61.4,56.0,30.24,NNE,29,1.0,7.0,81,0.00,,,0.00,weatherlink.com 1.10,2013-09-06 12:47:00,
2013-09-06 09:02:00,61.6,55.0,30.24,North,1,3.0,7.0,78,0.00,,,0.00,weatherlink.com 1.10,2013-09-06 13:02:00,
2013-09-06 09:17:00,62.9,54.0,30.24,North,1,3.0,6.0,73,0.00,,,0.00,weatherlink.com 1.10,2013-09-06 13:17:00,
2013-09-06 09:32:00,63.0,55.0,30.24,NW,321,0.0,6.0,75,0.00,,,0.00,weatherlink.com 1.10,2013-09-06 13:32:00,
2013-09-06 09:47:00,63.8,55.0,30.24,NE,35,0.0,6.0,74,0.00,,,0.00,weatherlink.com 1.10,2013-09-06 13:47:00,
2013-09-06 10:02:00,64.4,54.0,30.25,East,85,3.0,6.0,68,0.00,,,0.00,weatherlink.com 1.10,2013-09-06 14:02:00,
2013-09-06 10:17:00,65.4,54.0,30.24,North,358,3.0,5.0,67,0.00,,,0.00,weatherlink.com 1.10,2013-09-06 14:17:00,
2013-09-06 10:32:00,65.2,50.0,30.24,NNW,346,6.0,7.0,59,0.00,,,0.00,weatherlink.com 1.10,2013-09-06 14:32:00,
2013-09-06 10:47:00,65.2,48.0,30.24,North,352,1.0,8.0,55,0.00,,,0.00,weatherlink.com 1.10,2013-09-06 14:47:00,
2013-09-06 11:02:00,66.0,51.0,30.24,NNE,14,3.0,8.0,58,0.00,,,0.00,weatherlink.com 1.10,2013-09-06 15:02:00,
2013-09-06 11:17:00,66.0,45.0,30.24,NNW,339,5.0,8.0,47,0.00,,,0.00,weatherlink.com 1.10,2013-09-06 15:17:00,
2013-09-06 11:32:00,65.9,50.0,30.24,NW,320,4.0,7.0,56,0.00,,,0.00,weatherlink.com 1.10,2013-09-06 15:32:00,
2013-09-06 11:47:00,66.5,48.0,30.23,WNW,290,3.0,9.0,52,0.00,,,0.00,weatherlink.com 1.10,2013-09-06 15:47:00,
2013-09-06 12:02:00,66.3,47.0,30.23,NNW,343,5.0,10.0,50,0.00,,,0.00,weatherlink.com 1.10,2013-09-06 16:02:00,
2013-09-06 12:17:00,66.5,48.0,30.23,NNE,15,3.0,8.0,52,0.00,,,0.00,weatherlink.com 1.10,2013-09-06 16:17:00,
2013-09-06 12:33:00,66.6,47.0,30.23,North,350,5.0,9.0,49,0.00,,,0.00,weatherlink.com 1.10,2013-09-06 16:33:00,
2013-09-06 12:48:00,66.5,47.0,30.23,North,350,3.0,10.0,50,0.00,,,0.00,weatherlink.com 1.10,2013-09-06 16:48:00,
2013-09-06 13:03:00,66.6,48.0,30.23,North,360,4.0,8.0,51,0.00,,,0.00,weatherlink.com 1.10,2013-09-06 17:03:00,
2013-09-06 13:18:00,66.4,46.0,30.22,North,349,1.0,8.0,48,0.00,,,0.00,weatherlink.com 1.10,2013-09-06 17:18:00,
2013-09-06 13:33:00,67.2,48.0,30.22,WNW,301,1.0,7.0,51,0.00,,,0.00,weatherlink.com 1.10,2013-09-06 17:33:00,
2013-09-06 13:48:00,67.3,48.0,30.22,NE,38,2.0,8.0,50,0.00,,,0.00,weatherlink.com 1.10,2013-09-06 17:48:00,
2013-09-06 14:03:00,67.4,48.0,30.22,WNW,294,2.0,9.0,50,0.00,,,0.00,weatherlink.com 1.10,2013-09-06 18:03:00,
2013-09-06 14:18:00,67.8,49.0,30.21,NW,304,4.0,7.0,52,0.00,,,0.00,weatherlink.com 1.10,2013-09-06 18:18:00,
2013-09-06 14:33:00,67.7,49.0,30.20,West,271,0.0,5.0,52,0.00,,,0.00,weatherlink.com 1.10,2013-09-06 18:33:00,
2013-09-06 14:48:00,67.0,47.0,30.20,West,273,4.0,8.0,49,0.00,,,0.00,weatherlink.com 1.10,2013-09-06 18:48:00,
2013-09-06 15:03:00,66.8,48.0,30.20,West,272,5.0,9.0,51,0.00,,,0.00,weatherlink.com 1.10,2013-09-06 19:03:00,
2013-09-06 15:18:00,66.3,50.0,30.19,WNW,291,0.0,8.0,56,0.00,,,0.00,weatherlink.com 1.10,2013-09-06 19:18:00,
2013-09-06 15:33:00,66.7,48.0,30.19,WNW,287,2.0,7.0,52,0.00,,,0.00,weatherlink.com 1.10,2013-09-06 19:33:00,
2013-09-06 15:48:00,68.2,48.0,30.18,NW,320,2.0,6.0,49,0.00,,,0.00,weatherlink.com 1.10,2013-09-06 19:48:00,
2013-09-06 16:03:00,67.2,46.0,30.18,WNW,288,1.0,7.0,47,0.00,,,0.00,weatherlink.com 1.10,2013-09-06 20:03:00,
2013-09-06 16:18:00,66.4,49.0,30.17,NE,35,0.0,8.0,54,0.00,,,0.00,weatherlink.com 1.10,2013-09-06 20:18:00,
2013-09-06 16:33:00,67.4,48.0,30.17,WNW,283,0.0,8.0,50,0.00,,,0.00,weatherlink.com 1.10,2013-09-06 20:33:00,
2013-09-06 16:48:00,66.4,48.0,30.17,WSW,254,3.0,6.0,51,0.00,,,0.00,weatherlink.com 1.10,2013-09-06 20:48:00,
2013-09-06 17:03:00,64.4,49.0,30.17,West,264,1.0,4.0,57,0.00,,,0.00,weatherlink.com 1.10,2013-09-06 21:03:00,
2013-09-06 17:18:00,64.6,48.0,30.17,North,360,0.0,6.0,56,0.00,,,0.00,weatherlink.com 1.10,2013-09-06 21:18:00,
2013-09-06 17:33:00,66.3,49.0,30.17,WSW,257,0.0,8.0,54,0.00,,,0.00,weatherlink.com 1.10,2013-09-06 21:33:00,
2013-09-06 17:48:00,66.5,48.0,30.17,West,278,3.0,7.0,51,0.00,,,0.00,weatherlink.com 1.10,2013-09-06 21:48:00,
2013-09-06 18:03:00,65.5,48.0,30.17,WNW,296,6.0,7.0,54,0.00,,,0.00,weatherlink.com 1.10,2013-09-06 22:03:00,
2013-09-06 18:18:00,64.7,49.0,30.17,West,264,1.0,6.0,57,0.00,,,0.00,weatherlink.com 1.10,2013-09-06 22:18:00,
2013-09-06 18:33:00,64.4,50.0,30.16,West,275,0.0,2.0,61,0.00,,,0.00,weatherlink.com 1.10,2013-09-06 22:33:00,
2013-09-06 18:48:00,63.1,51.0,30.17,West,275,0.0,1.0,66,0.00,,,0.00,weatherlink.com 1.10,2013-09-06 22:48:00,
2013-09-06 19:03:00,59.4,51.0,30.16,West,275,0.0,2.0,74,0.00,,,0.00,weatherlink.com 1.10,2013-09-06 23:03:00,
2013-09-06 19:18:00,56.6,51.0,30.16,West,275,0.0,1.0,81,0.00,,,0.00,weatherlink.com 1.10,2013-09-06 23:18:00,
2013-09-06 19:33:00,54.7,50.0,30.17,West,275,0.0,1.0,83,0.00,,,0.00,weatherlink.com 1.10,2013-09-06 23:33:00,
2013-09-06 19:48:00,53.3,49.0,30.16,West,275,0.0,0.0,86,0.00,,,0.00,weatherlink.com 1.10,2013-09-06 23:48:00,
2013-09-06 20:18:00,51.4,48.0,30.17,West,275,0.0,1.0,89,0.00,,,0.00,weatherlink.com 1.10,2013-09-07 00:18:00,
2013-09-06 20:33:00,50.7,48.0,30.17,West,275,0.0,0.0,90,0.00,,,0.00,weatherlink.com 1.10,2013-09-07 00:33:00,
2013-09-06 20:48:00,50.2,48.0,30.17,West,275,0.0,1.0,92,0.00,,,0.00,weatherlink.com 1.10,2013-09-07 00:48:00,
2013-09-06 21:18:00,49.2,47.0,30.17,West,275,0.0,0.0,92,0.00,,,0.00,weatherlink.com 1.10,2013-09-07 01:18:00,
2013-09-06 21:33:00,48.9,47.0,30.16,West,275,0.0,0.0,93,0.00,,,0.00,weatherlink.com 1.10,2013-09-07 01:33:00,
2013-09-06 21:48:00,48.5,47.0,30.17,West,275,0.0,-999.0,93,-99.99,,,0.00,weatherlink.com 1.10,2013-09-07 01:48:00,
2013-09-06 22:03:00,48.1,46.0,30.16,West,275,0.0,0.0,93,0.00,,,0.00,weatherlink.com 1.10,2013-09-07 02:03:00,
2013-09-06 22:18:00,47.5,46.0,30.16,West,275,0.0,0.0,93,0.00,,,0.00,weatherlink.com 1.10,2013-09-07 02:18:00,
2013-09-06 22:33:00,47.1,46.0,30.16,West,275,0.0,0.0,94,0.00,,,0.00,weatherlink.com 1.10,2013-09-07 02:33:00,
2013-09-06 22:48:00,47.2,46.0,30.16,West,275,0.0,0.0,94,0.00,,,0.00,weatherlink.com 1.10,2013-09-07 02:48:00,
2013-09-06 23:03:00,46.9,45.0,30.15,West,275,0.0,0.0,94,0.00,,,0.00,weatherlink.com 1.10,2013-09-07 03:03:00,
2013-09-06 23:18:00,46.7,45.0,30.15,West,275,0.0,0.0,94,0.00,,,0.00,weatherlink.com 1.10,2013-09-07 03:18:00,
2013-09-06 23:33:00,46.5,45.0,30.15,West,275,0.0,0.0,94,0.00,,,0.00,weatherlink.com 1.10,2013-09-07 03:33:00,
2013-09-06 23:48:00,46.5,45.0,30.14,West,275,0.0,0.0,95,0.00,,,0.00,weatherlink.com 1.10,2013-09-07 03:48:00,